,

(GMT )
Resia Pass

Weather History for LIVE - December, 2013

Change the Weather History Date:

Tuesday, December 31, 2013

  Actual Average Record
Temperature  
Mean Temperature 22 °F -  
Max Temperature 30 °F 31 °F 46 °F (2006)
Min Temperature 14 °F 17 °F 6 °F (2001)
Degree Days  
Heating Degree Days 43    
Moisture  
Dew Point 9 °F    
Average Humidity 66    
Maximum Humidity 79    
Minimum Humidity 37    
Precipitation  
Precipitation 0.00 in - - ()
Sea Level Pressure  
Sea Level Pressure 30.09 in    
Wind  
Wind Speed 4 mph ()    
Max Wind Speed 8 mph    
Max Gust Speed -    
Averages and records for this station are not official NWS values.
T = Trace of Precipitation, MM = Missing Value Source: Averaged Metar Reports

Daily Weather History Graph

Daily Weather History Graph

Search for Another Location

Airport or City:

Trip Planner

Search our weather history database for the weather conditions in past years. The results will help you decide how hot, cold, wet, or windy it might be!

Date:

Astronomy

Dec. 31, 2013 Rise Set
Actual Time 8:03 AM CET 4:39 PM CET
Civil Twilight 7:27 AM CET 5:14 PM CET
Nautical Twilight 6:49 AM CET 5:52 PM CET
Astronomical Twilight 6:12 AM CET 6:29 PM CET
Moon 6:36 AM CET (12/31) 3:59 PM CET (12/31)
Length of Visible Light 9h 46m
Length of Day
8h 36m
Waning Crescent, 2% of the Moon is Illuminated
Dec 31
Waning Crescent
Jan 1
New
Jan 8
First Quarter
Jan 16
Full
Jan 24
Last Quarter

Hourly Weather History & Observations

Time (CET) Temp. Windchill Dew Point Humidity Pressure Visibility Wind Dir Wind Speed Gust Speed Precip Events Conditions
12:55 AM 15.8 °F 8.6 °F 10.4 °F 79% 30.18 in - North 4.6 mph - N/A   Clear
1:55 AM 15.8 °F 7.2 °F 8.6 °F 73% 30.18 in - NNE 5.8 mph - N/A   Clear
2:55 AM 15.8 °F 7.2 °F 8.6 °F 73% 30.18 in - NNE 5.8 mph - N/A   Clear
3:55 AM 15.8 °F 7.2 °F 8.6 °F 73% 30.18 in - North 5.8 mph - N/A   Clear
4:55 AM 15.8 °F 7.2 °F 8.6 °F 73% 30.18 in - NNE 5.8 mph - N/A   Clear
5:55 AM 15.8 °F 7.2 °F 6.8 °F 68% 30.15 in - North 5.8 mph - N/A   Clear
6:55 AM 14.0 °F 6.5 °F 6.8 °F 73% 30.15 in - NNE 4.6 mph - N/A   Clear
7:55 AM 14.0 °F 2.9 °F 6.8 °F 73% 30.12 in - North 8.1 mph - N/A   Clear
8:55 AM 14.0 °F 5.1 °F 6.8 °F 73% 30.12 in - North 5.8 mph - N/A   Clear
9:55 AM 17.6 °F 9.3 °F 8.6 °F 68% 30.12 in - North 5.8 mph - N/A   Clear
10:55 AM 23.0 °F 15.8 °F 8.6 °F 54% 30.12 in - North 5.8 mph - N/A   Clear
11:55 AM 24.8 °F 19.1 °F 8.6 °F 50% 30.09 in - North 4.6 mph - N/A   Clear
12:55 PM 30.2 °F 26.7 °F 6.8 °F 37% 30.09 in - North 3.5 mph - N/A   Clear
1:55 PM 30.2 °F 25.4 °F 6.8 °F 37% 30.06 in - North 4.6 mph - N/A   Clear
2:55 PM 30.2 °F 26.7 °F 6.8 °F 37% 30.06 in - North 3.5 mph - N/A   Clear
3:55 PM 23.0 °F - 8.6 °F 54% 30.04 in - Calm Calm - N/A   Clear
4:55 PM 21.2 °F - 10.4 °F 63% 30.04 in - Calm Calm - N/A   Clear
5:55 PM 21.2 °F - 10.4 °F 63% 30.04 in - Calm Calm - N/A   Clear
6:55 PM 17.6 °F 10.7 °F 12.2 °F 79% 30.01 in - North 4.6 mph - N/A   Clear
7:55 PM 17.6 °F - 12.2 °F 79% 30.01 in - North 2.3 mph - N/A   Clear
8:55 PM 15.8 °F 10.2 °F 10.4 °F 79% 30.01 in - NNE 3.5 mph - N/A   Clear
9:55 PM 15.8 °F 6.1 °F 10.4 °F 79% 30.01 in - North 6.9 mph - N/A   Clear
10:55 PM 15.8 °F 10.2 °F 10.4 °F 79% 30.01 in - North 3.5 mph - N/A   Clear
11:55 PM 15.8 °F - 10.4 °F 79% 30.01 in - NNE 2.3 mph - N/A   Clear